[[{"header":{"parameterUnit":"m.s-1","parameterCategory":1,"la1":30.2991,"la2":30.254,"lo1":-89.0895,"lo2":-89.0444,"dx":0.0017,"dy":0.0017,"nx":28,"ny":28,"refTime":"2023-02-06T15:00:00:Z","depth":0,"parameterNumber":2,"parameterNumberName":"U-component_of_WINDS"},"data":[0,0,0,0,0,0,0,0,0,0,0,0,0,0,0,0,0,0,0,0,0,0,0,0,0,0,0,0,0,0,0,0,0,0,0,0,0,0,0,0,0,0,0,0,0,0,0,0,0,0,0,0,0,0,0,0,0,0,-4.9373,-4.9373,0,-4.9375,-4.9375,-4.9375,-4.929,-4.9287,-4.9285,-4.9283,-4.9285,-4.9287,-4.9289,0,0,0,0,0,0,0,0,0,0,0,0,0,-4.9296,-4.9298,-4.9373,-4.9373,-4.9373,-4.9375,-4.9375,-4.9375,-4.929,-4.9287,-4.9284,-4.9282,-4.9284,-4.9287,-4.9289,0,0,0,0,0,0,0,0,0,0,0,0,0,-4.9317,-4.9299,-4.9373,-4.9331,-4.9327,-4.9375,-4.9375,-4.9375,-4.9291,-4.9287,-4.9284,-4.9281,-4.9283,-4.9286,-4.929,-4.9378,0,0,-4.9299,-4.9301,0,0,0,0,0,0,0,0,-4.9316,-4.932,-4.9337,-4.9334,-4.933,-4.9329,-4.9349,-4.9376,-4.9291,-4.9304,-4.9283,-4.9279,-4.9302,-4.9304,-4.9311,-4.9378,-4.9378,-4.93,-4.9302,-4.9303,-4.9304,0,0,0,0,0,0,0,-4.9315,-4.932,-4.9374,-4.9338,-4.9333,-4.9312,-4.9311,-4.9354,-4.9322,-4.9303,-4.9297,-4.9298,-4.9299,-4.9309,-4.9311,-4.9378,-4.93,-4.9303,-4.9305,-4.9306,-4.952,-4.9523,0,0,0,0,0,0,-4.9319,-4.9319,-4.9374,-4.9374,-4.9315,-4.9316,-4.9315,-4.9332,-4.9322,-4.9317,-4.9301,-4.9294,-4.9305,-4.9307,-4.9311,-4.9414,-4.9303,-4.9306,-4.9308,-4.9516,-4.952,-4.9524,0,0,0,0,0,0,-4.9318,-4.9325,-4.9374,-4.9345,-4.935,-4.9321,-4.9341,-4.9334,-4.9343,-4.932,-4.9314,-4.9316,-4.9302,-4.9306,-4.9362,-4.9413,-4.9308,-4.9311,-4.9511,-4.9517,-4.9522,-4.9622,0,0,0,0,0,0,-4.9316,-4.9325,-4.9358,-4.9346,-4.9351,-4.9425,-4.9344,-4.9337,-4.9349,-4.934,-4.9333,-4.9328,-4.93,-4.9358,-4.9366,-4.9416,-4.9313,-4.9507,-4.9514,-4.9521,-4.9614,-4.9631,-4.9644,0,0,0,0,0,-4.9314,-4.9385,-4.936,-4.9367,-4.9392,-4.9428,-4.9431,-4.9397,-4.9354,-4.9387,-4.9372,-4.9328,-4.9407,-4.9364,-4.9372,-4.9424,-4.9503,-4.9512,-4.952,-4.9607,-4.9627,-4.9644,0,0,0,0,0,0,-4.9403,-4.9383,-4.9354,-4.9425,-4.9429,-4.9414,-4.9454,-4.9419,-4.9435,-4.9426,-4.9383,-4.9382,-4.9446,-4.9441,-4.9394,-4.951,-4.9447,-4.9458,-4.9511,-4.953,-4.9545,-4.9544,-4.9316,0,0,0,0,0,-4.9431,-4.9462,-4.9443,-4.9507,-4.9511,-4.9483,-4.9497,-4.9471,-4.9473,-4.9475,-4.9464,-4.9469,-4.9494,-4.9512,-4.9534,-4.9614,-4.9611,-4.9653,-4.9669,-4.9681,-4.969,-4.9733,-4.9752,-4.9552,-4.9552,-4.9552,0,0,-4.9488,-4.9482,-4.9504,-4.9525,-4.9525,-4.9559,-4.9484,-4.9523,-4.9548,-4.948,-4.9533,-4.9526,-4.9528,-4.9597,-4.9627,-4.9595,-4.9745,-4.9692,-4.9702,-4.9704,-4.9744,-4.9763,-4.978,-4.9558,-4.9557,-4.9556,0,0,-4.9611,-4.9609,-4.9662,-4.9664,-4.9666,-4.9647,-4.9661,-4.9652,-4.9645,-4.9697,-4.9648,-4.9677,-4.9722,-4.9726,-4.9733,-4.9861,-4.9821,-4.9869,-4.9948,-4.999,-5.0006,-5.002,-5.0066,-5.0083,-4.9879,-4.9879,-4.9879,0,-4.9682,-4.9731,-4.9694,-4.9736,-4.9747,-4.9689,-4.9744,-4.9748,-4.9757,-4.9766,-4.973,-4.9786,-4.9784,-4.9853,-4.9885,-4.9893,-4.9907,-4.9869,-5.0007,-5.002,-5.0033,-5.0076,-5.0093,-4.9885,-4.9884,-4.9884,-4.9883,0,-4.9819,-4.9854,-4.9897,-4.9908,-4.9924,-4.9972,-4.9943,-4.9964,-4.9937,-4.9923,-4.9978,-4.9973,-4.9994,-5.0009,-4.9982,-5.0076,-5.0056,-5.0014,-4.995,-5.0058,-5.0098,-5.0115,-4.9893,-4.9891,-4.9889,-4.9888,0,0,-4.9995,-4.9987,-5.0004,-5.0009,-5.0008,-5.0034,-5.0081,-5.0102,-5.0121,-5.013,-5.0168,-5.0209,-5.0171,-5.018,-5.0154,-5.0191,-5.0294,-5.0145,-5.0145,-5.0173,-5.0397,-5.0428,-5.0448,-5.0268,-5.0271,-5.0274,-5.0397,0,-5.0114,-5.0192,-5.0162,-5.0243,-5.0275,-5.0222,-5.0263,-5.0267,-5.0256,-5.0282,-5.0269,-5.0298,-5.0246,-5.0252,-5.0286,-5.0274,-5.0338,-5.0265,-5.0303,-5.0305,-5.0304,-5.0468,-5.0501,-5.0617,-5.0412,-5.0415,-5.0417,0,-5.0262,-5.0279,-5.0363,-5.0359,-5.0371,-5.0408,-5.0426,-5.0452,-5.0456,-5.0445,-5.0457,-5.0423,-5.0469,-5.0407,-5.047,-5.0421,-5.0435,-5.0432,-5.0436,-5.0437,-5.0367,-5.0475,-5.0653,-5.0671,-5.0441,-5.0439,-5.0437,0,-5.0383,-5.0426,-5.0482,-5.0488,-5.0484,-5.0512,-5.0511,-5.0512,-5.0528,-5.0544,-5.0554,-5.0575,-5.0586,-5.0604,-5.0577,-5.0534,-5.0645,-5.0579,-5.0637,-5.0638,-5.0662,-5.0661,-5.0846,-5.0673,-5.0672,-5.0672,-5.0672,0,-5.0518,-5.0572,-5.0537,-5.0571,-5.0631,-5.0596,-5.0656,-5.065,-5.0652,-5.0685,-5.0641,-5.0673,-5.0636,-5.0665,-5.0644,-5.0701,-5.0706,-5.0699,-5.0693,-5.0703,-5.0704,-5.0711,-5.0702,-5.0677,-5.0676,-5.0675,-5.0674,0,-5.0662,-5.064,-5.0699,-5.0691,-5.069,-5.0735,-5.0728,-5.076,-5.0747,-5.0789,-5.0797,-5.0776,-5.0808,-5.0784,-5.0815,-5.0801,-5.0875,-5.0858,-5.0874,-5.0869,-5.0928,-5.0923,-5.1124,-5.1149,-5.096,-5.0962,-5.0964,0,-5.0749,-5.079,-5.0787,-5.0807,-5.0809,-5.0841,-5.0857,-5.0825,-5.0844,-5.0853,-5.0885,-5.0913,-5.0934,-5.0988,-5.0975,-5.1,-5.0982,-5.1051,-5.0985,-5.0995,-5.0983,-5.0981,-5.0985,-5.1064,-5.1066,-5.1068,-5.107,0,-5.0907,-5.0895,-5.092,-5.0942,-5.0963,-5.0978,-5.099,-5.1009,-5.0977,-5.1,-5.1033,-5.1049,-5.1082,-5.1111,-5.1132,-5.1131,-5.1096,-5.1091,-5.1105,-5.1115,-5.1123,-5.112,-5.091,-5.1086,-5.1084,-5.1083,-5.1082,-5.1081,-5.1025,-5.1059,-5.1063,-5.1093,-5.1099,-5.1112,-5.1143,-5.1134,-5.1161,-5.1185,-5.1165,-5.1205,-5.121,-5.1234,-5.1238,-5.1269,-5.1241,-5.1262,-5.1267,-5.1273,-5.1281,-5.1119,-5.1273,-5.1272,-5.1272,-5.1271,-5.1271,0,-5.118,-5.1181,-5.1209,-5.1228,-5.1252,-5.1218,-5.123,-5.1252,-5.1288,-5.1296,-5.1318,-5.1357,-5.1385,-5.1376,-5.1402,-5.1428,-5.1413,-5.1436,-5.1433,-5.1434,-5.1305,-5.129,-5.1448,-5.1448,-5.1448,-5.1448,-5.1448,-5.1448,-5.1264,-5.132,-5.131,-5.1369,-5.1369,-5.1408,-5.1418,-5.143,-5.1437,-5.1482,-5.1506,-5.15,-5.1502,-5.1528,-5.1553,-5.155,-5.1561,-5.1591,-5.1582,-5.1461,-5.1443,-5.1426,-5.1412,-5.1594,-5.1594,-5.1708,-5.1709,-5.171]},{"header":{"parameterUnit":"m.s-1","parameterCategory":1,"la1":30.2991,"la2":30.254,"lo1":-89.0895,"lo2":-89.0444,"dx":0.0017,"dy":0.0017,"nx":28,"ny":28,"refTime":"2023-02-06T15:00:00:Z","depth":0,"parameterNumber":3,"parameterNumberName":"V-component_of_WINDS"},"data":[0,0,0,0,0,0,0,0,0,0,0,0,0,0,0,0,0,0,0,0,0,0,0,0,0,0,0,0,0,0,0,0,0,0,0,0,0,0,0,0,0,0,0,0,0,0,0,0,0,0,0,0,0,0,0,0,0,0,0.5043,0.5043,0,0.5065,0.5065,0.5065,0.5096,0.5097,0.5097,0.5098,0.512,0.512,0.512,0,0,0,0,0,0,0,0,0,0,0,0,0,0.503,0.503,0.5043,0.5043,0.5043,0.5065,0.5065,0.5065,0.5096,0.5097,0.5097,0.5098,0.512,0.512,0.512,0,0,0,0,0,0,0,0,0,0,0,0,0,0.5042,0.503,0.5043,0.5061,0.5063,0.5065,0.5065,0.5066,0.5096,0.5097,0.5097,0.5098,0.512,0.512,0.512,0.5106,0,0,0.5121,0.5121,0,0,0,0,0,0,0,0,0.5041,0.5042,0.5058,0.506,0.5062,0.5078,0.5069,0.5079,0.5096,0.5083,0.5098,0.5098,0.5105,0.5107,0.5109,0.5107,0.5108,0.5121,0.5121,0.5121,0.5121,0,0,0,0,0,0,0,0.504,0.5042,0.5051,0.5058,0.5061,0.5069,0.5072,0.5071,0.509,0.5084,0.5087,0.5089,0.5107,0.5109,0.511,0.5108,0.5121,0.5121,0.5121,0.5121,0.5099,0.5099,0,0,0,0,0,0,0.5036,0.5041,0.5051,0.5052,0.5053,0.5069,0.5072,0.5072,0.509,0.5093,0.5088,0.509,0.5108,0.511,0.5111,0.5098,0.5121,0.5121,0.5121,0.51,0.5099,0.5098,0,0,0,0,0,0,0.5036,0.5037,0.505,0.5047,0.5049,0.5068,0.5069,0.5072,0.5075,0.5093,0.5096,0.5087,0.5109,0.5111,0.5108,0.5099,0.5121,0.5121,0.5101,0.51,0.5099,0.507,0,0,0,0,0,0,0.5035,0.5037,0.503,0.5047,0.5049,0.5045,0.5068,0.5072,0.5075,0.5078,0.5093,0.5096,0.511,0.5107,0.5108,0.51,0.5121,0.5102,0.51,0.5099,0.5071,0.5068,0.5065,0,0,0,0,0,0.5035,0.502,0.503,0.5031,0.5042,0.5044,0.5046,0.5063,0.5074,0.5069,0.5081,0.5095,0.51,0.5107,0.5108,0.5099,0.5102,0.5101,0.5099,0.5073,0.5068,0.5065,0,0,0,0,0,0,0.5001,0.5022,0.5033,0.5023,0.5032,0.505,0.5043,0.5057,0.5062,0.5064,0.5085,0.5088,0.5083,0.5091,0.5098,0.5088,0.5103,0.5102,0.5083,0.5079,0.5076,0.5074,0.5121,0,0,0,0,0,0.4992,0.4992,0.5011,0.5001,0.5005,0.5023,0.5025,0.5038,0.5047,0.5051,0.5063,0.5072,0.5076,0.5078,0.5082,0.5073,0.5078,0.5068,0.5065,0.5062,0.506,0.506,0.5056,0.5093,0.5093,0.5093,0,0,0.4974,0.4986,0.4985,0.4995,0.5003,0.5004,0.5026,0.5025,0.5026,0.5051,0.5049,0.5059,0.5071,0.5066,0.5064,0.5072,0.5052,0.506,0.5057,0.5058,0.5058,0.5054,0.5051,0.5092,0.5092,0.5093,0,0,0.4943,0.4951,0.4944,0.4953,0.4966,0.4979,0.4978,0.4994,0.5002,0.5001,0.5021,0.5023,0.5028,0.5037,0.5043,0.5019,0.5034,0.502,0.5002,0.5001,0.4998,0.4996,0.499,0.4987,0.5019,0.5019,0.5019,0,0.4918,0.492,0.4939,0.4938,0.4943,0.4967,0.4963,0.497,0.4983,0.4987,0.4996,0.5006,0.5016,0.5015,0.5009,0.5012,0.5013,0.5018,0.4997,0.4995,0.4993,0.4987,0.4985,0.5017,0.5017,0.5017,0.5018,0,0.4891,0.4893,0.4886,0.49,0.4905,0.4901,0.4922,0.4924,0.4938,0.495,0.4951,0.4964,0.4973,0.4974,0.4986,0.4976,0.4981,0.4993,0.5009,0.4987,0.4983,0.498,0.5015,0.5015,0.5016,0.5016,0,0,0.4836,0.4864,0.4861,0.487,0.4888,0.4889,0.4889,0.4899,0.4902,0.4911,0.4913,0.4919,0.4932,0.4938,0.4952,0.4951,0.4935,0.4964,0.4965,0.496,0.4928,0.4919,0.4916,0.4945,0.4945,0.4945,0.4928,0,0.4808,0.4809,0.4828,0.4824,0.4827,0.4852,0.4852,0.4864,0.4877,0.4883,0.4897,0.4902,0.4917,0.4922,0.4922,0.4937,0.4929,0.4938,0.4948,0.4948,0.4945,0.4913,0.4903,0.4887,0.4926,0.4925,0.4925,0,0.4775,0.4785,0.4782,0.4804,0.4806,0.4805,0.4818,0.4823,0.4838,0.4848,0.4857,0.4873,0.4877,0.4892,0.4898,0.4904,0.4909,0.4918,0.4918,0.4919,0.4935,0.4916,0.4881,0.4879,0.4922,0.4922,0.4923,0,0.4738,0.475,0.4751,0.4757,0.4782,0.4782,0.4792,0.4808,0.4815,0.4826,0.4831,0.4842,0.4849,0.4858,0.4878,0.4887,0.4883,0.4899,0.4892,0.4892,0.489,0.489,0.4857,0.4892,0.4892,0.4892,0.4892,0,0.4706,0.4703,0.4735,0.4735,0.4734,0.4757,0.4756,0.4769,0.4784,0.4788,0.4811,0.4814,0.4841,0.4848,0.4864,0.4868,0.487,0.488,0.4884,0.4878,0.4877,0.4882,0.4884,0.4892,0.4892,0.4892,0.4892,0,0.4663,0.4684,0.4687,0.4711,0.4718,0.4716,0.4738,0.474,0.4756,0.4762,0.4764,0.4789,0.4799,0.4821,0.4836,0.4848,0.4849,0.4856,0.4843,0.4846,0.4839,0.484,0.4809,0.4807,0.4842,0.4842,0.4841,0,0.4641,0.464,0.4666,0.4671,0.4681,0.4688,0.4696,0.472,0.4727,0.4747,0.4747,0.476,0.4771,0.4787,0.4807,0.482,0.4828,0.4817,0.483,0.4826,0.483,0.483,0.4832,0.4813,0.4813,0.4813,0.4812,0,0.4601,0.4613,0.4622,0.4637,0.4645,0.4657,0.467,0.4673,0.4701,0.4708,0.472,0.4729,0.4747,0.476,0.4777,0.4789,0.4806,0.4808,0.4808,0.4802,0.4795,0.4801,0.4836,0.4808,0.4809,0.4809,0.4809,0.4809,0.457,0.4571,0.4591,0.4602,0.4615,0.4628,0.4632,0.465,0.466,0.4677,0.4691,0.4702,0.4721,0.4746,0.4758,0.4768,0.4776,0.4774,0.4774,0.4774,0.4772,0.4794,0.4771,0.4771,0.4771,0.4771,0.4771,0,0.4533,0.4547,0.4557,0.4576,0.4586,0.4602,0.4619,0.4626,0.4636,0.4652,0.4664,0.4679,0.4693,0.4715,0.4731,0.4735,0.4744,0.4739,0.4739,0.4742,0.4763,0.4763,0.4732,0.4732,0.4732,0.4732,0.4732,0.4732,0.4514,0.4519,0.4533,0.4546,0.4561,0.4572,0.4581,0.4594,0.4608,0.4624,0.4636,0.4651,0.4671,0.4689,0.4703,0.471,0.4715,0.4708,0.4717,0.4736,0.474,0.4743,0.4743,0.4709,0.4708,0.4695,0.4695,0.4695]}]]